Vorticity
6 7 6 6 6 5 5 4 3 3 4 4 3 4 5 5 6 6 5 6 6 4 6 6 5 5 6 5 4 4 5 5 4 9 10 5 4 4 3 9 6 -2 -1 3 1
7 6 7 6 6 5 4 5 5 3 3 4 3 4 5 5 5 5 6 6 6 6 5 7 6 6 5 5 5 4 1 9 6 6 3 8 6 4 1 3 5 2 5 2 2
10 14 6 6 6 6 6 6 5 4 3 3 5 3 4 5 5 5 6 6 6 6 6 6 5 5 4 5 5 7 5 5 5 1 5 11 5 9 -1 -1 -2 3 -1 -0 2
-7 3 14 3 8 5 7 6 6 4 4 4 3 5 3 5 5 15 9 4 6 6 6 6 6 6 5 5 5 6 4 3 4 5 7 7 8 9 4 3 2 2 -1 -1 -2
23 3 7 12 4 8 6 6 6 7 4 4 3 3 6 6 0 7 18 6 7 6 6 6 5 6 5 3 5 5 4 4 4 4 6 6 7 7 13 10 10 8 10 11 10
30 20 -0 3 2 6 6 7 7 6 6 3 6 4 4 2 -1 3 -6 18 9 7 7 6 7 7 5 5 6 0 3 5 5 9 6 5 6 6 11 8 8 8 10 10 12
-2 31 15 9 11 9 5 8 8 7 6 5 3 6 4 2 3 7 8 -16 8 18 8 4 6 9 9 9 7 4 7 5 6 7 7 11 10 11 10 8 7 7 10 12 8
5 -0 26 19 5 16 6 6 9 10 7 6 6 4 10 1 3 -4 15 8 -0 -10 -0 9 13 10 7 7 2 -0 5 8 12 10 7 10 4 4 8 5 7 11 8 12 9
4 6 4 40 24 -2 9 1 10 10 10 8 6 4 15 4 4 2 -1 7 10 5 7 3 -1 -1 3 5 5 12 -7 -3 -4 5 12 13 10 10 7 10 8 6 9 7 8
12 5 6 6 37 4 21 16 9 11 10 7 7 7 -17 44 5 7 5 3 0 11 8 4 5 5 5 1 -13 7 9 8 6 6 -8 -1 3 5 0 3 3 5 7 15 9
13 10 13 4 18 25 -6 39 19 10 2 -3 8 20 -24 67 -34 50 0 5 3 -3 1 9 6 -0 2 4 6 -8 -3 1 5 1 -0 2 5 4 6 7 7 8 6 15 4
16 15 14 8 9 35 4 5 1 3 8 1 12 2 21 -21 46 -22 47 -2 3 3 3 0 -4 3 3 1 3 5 5 3 5 6 11 7 1 1 3 8 13 14 15 11 0
25 16 15 17 12 30 -10 -7 30 10 9 37 2 9 -21 32 -42 35 -2 35 5 4 6 -0 -5 15 7 2 3 4 3 2 3 3 3 14 35 34 22 16 17 11 9 4 6
20 15 15 19 18 16 27 -20 16 13 -11 -5 37 21 6 -10 7 -31 32 -5 6 27 8 14 22 -0 -1 5 13 13 13 18 16 17 12 -1 -2 6 5 18 20 17 15 -5 3
18 24 19 6 12 2 32 -10 18 17 -4 17 42 4 44 3 -3 10 9 -13 12 0 1 10 21 16 11 5 -3 -2 10 7 2 3 9 25 23 12 24 -6 -28 22 9 6 17
21 13 10 23 8 17 39 -30 33 -55 40 7 26 26 4 8 15 -15 21 21 18 7 8 15 -6 13 21 30 22 16 12 -1 8 18 35 9 -16 44 23 11 12 9 15 11 -1
23 15 9 16 13 3 35 -16 -8 -23 29 11 6 16 25 7 30 -9 -1 9 -15 6 13 27 7 2 -0 9 19 13 21 12 14 12 -6 27 32 -37 -2 -8 -3 8 11 -6 -0
20 14 12 13 5 11 15 50 -46 54 -27 34 -10 15 18 17 33 2 -4 3 8 -12 45 -15 36 -9 19 1 -10 5 -18 -33 7 3 1 23 11 -17 19 23 -14 1 -0 -1 25
16 16 12 9 7 9 27 8 37 38 -0 2 11 18 -1 20 40 22 0 1 0 -1 -41 15 23 -29 36 -7 -22 5 4 41 -8 -6 13 -5 8 7 -2 2 5 20 15 -1 8
20 15 11 7 10 5 31 -18 31 36 27 18 -39 -2 14 20 -4 22 5 46 8 1 4 -18 18 39 40 28 25 3 20 3 9 7 3 18 18 -26 -25 7 6 10 24 19 15
17 13 8 5 10 -0 1 -13 24 66 10 -14 -18 -23 22 -22 -13 8 18 -57 65 17 18 -18 -18 5 24 10 -1 -7 12 6 21 -26 6 11 7 16 17 15 17 19 -2 10 13
14 7 5 11 7 8 -14 9 -1 -16 -24 32 17 -2 12 22 1 11 -19 12 10 66 -19 6 19 2 -5 16 23 8 5 4 -40 24 9 -28 12 -30 -12 -11 5 -5 -7 8 15
25 0 5 8 3 -1 16 6 0 16 16 34 -7 -6 35 16 -3 1 5 7 -29 17 39 16 26 10 45 22 9 24 11 14 -20 6 -1 -34 6 21 -20 -33 7 6 14 14 14
6 -4 1 14 12 2 8 30 6 -22 -19 44 -5 21 -2 12 -13 22 -2 11 -3 10 3 49 0 -14 -48 5 17 -4 20 11 9 -0 -0 -12 -3 -27 -20 -1 0 1 1 6 33
13 47 17 30 5 24 6 -4 11 -5 16 29 31 -8 -11 17 8 -5 29 1 15 -12 36 6 2 10 -9 -4 3 27 13 5 0 -11 -21 -9 -0 3 27 18 15 31 22 25 16
-0 -13 -4 -15 5 52 50 13 1 -2 37 -6 18 -1 25 2 12 7 15 22 -0 9 20 -20 5 14 17 3 -26 -7 8 13 14 2 9 5 -15 17 -8 -4 8 13 16 11 17
-0 1 12 16 14 38 4 -1 22 22 5 3 -10 18 6 -2 16 6 14 27 22 14 5 24 -19 -5 28 8 16 43 -8 -12 -1 9 9 -5 -2 10 3 -5 8 13 7 16 22
Height
3085 3091 3096 3101 3105 3110 3113 3116 3120 3124 3128 3131 3134 3138 3140 3143 3147 3150 3153 3155 3157 3160 3162 3164 3166 3167 3169 3171 3172 3173 3175 3176 3178 3179 3180 3181 3182 3182 3182 3183 3184 3186 3186 3187 3186
3076 3082 3087 3092 3098 3102 3107 3110 3112 3117 3122 3126 3129 3133 3136 3140 3143 3146 3150 3151 3154 3157 3160 3162 3163 3165 3167 3168 3169 3170 3171 3174 3176 3177 3177 3178 3180 3180 3180 3181 3183 3184 3184 3184 3184
3067 3072 3078 3084 3090 3096 3101 3106 3109 3112 3116 3121 3125 3128 3132 3136 3140 3142 3145 3148 3150 3154 3157 3159 3161 3162 3164 3165 3166 3166 3168 3171 3172 3172 3174 3176 3177 3177 3176 3180 3181 3181 3181 3181 3181
3059 3063 3068 3075 3082 3089 3095 3100 3104 3107 3110 3116 3120 3124 3127 3132 3139 3138 3140 3144 3147 3150 3153 3155 3157 3159 3161 3162 3163 3164 3165 3166 3168 3169 3171 3172 3173 3173 3173 3177 3177 3176 3175 3176 3177
3048 3055 3059 3065 3073 3080 3087 3092 3097 3102 3105 3109 3114 3118 3122 3125 3132 3135 3137 3139 3142 3146 3149 3151 3153 3156 3157 3158 3159 3159 3161 3162 3163 3165 3166 3166 3168 3167 3169 3171 3170 3171 3170 3170 3171
3038 3044 3050 3056 3063 3071 3079 3085 3090 3094 3099 3102 3106 3111 3115 3117 3128 3130 3133 3136 3138 3141 3145 3147 3149 3152 3153 3154 3155 3155 3156 3158 3158 3162 3161 3161 3162 3162 3166 3165 3165 3164 3164 3165 3166
3029 3034 3041 3047 3054 3062 3070 3077 3083 3087 3093 3097 3101 3103 3104 3113 3120 3125 3128 3132 3135 3137 3140 3142 3145 3147 3149 3151 3150 3151 3152 3154 3155 3157 3156 3157 3155 3157 3160 3158 3160 3160 3159 3159 3161
3020 3025 3030 3036 3046 3053 3061 3071 3075 3081 3085 3090 3093 3096 3093 3107 3112 3119 3124 3128 3131 3134 3136 3138 3140 3142 3144 3147 3147 3148 3148 3149 3151 3152 3152 3153 3149 3153 3154 3154 3154 3155 3155 3155 3156
3008 3015 3021 3026 3036 3045 3052 3063 3068 3073 3078 3082 3087 3089 3088 3097 3104 3114 3119 3123 3126 3128 3131 3134 3136 3137 3140 3142 3144 3144 3143 3145 3146 3147 3147 3147 3144 3148 3148 3149 3148 3150 3150 3150 3152
2996 3003 3010 3016 3026 3036 3045 3053 3060 3065 3069 3074 3077 3086 3083 3092 3098 3105 3111 3117 3119 3122 3125 3127 3129 3131 3132 3137 3136 3138 3141 3141 3142 3142 3141 3140 3138 3141 3143 3143 3143 3144 3144 3145 3146
2983 2990 2998 3007 3014 3024 3036 3043 3047 3054 3054 3056 3060 3069 3074 3081 3090 3095 3103 3109 3113 3115 3116 3120 3122 3119 3127 3133 3133 3135 3137 3138 3137 3138 3134 3133 3132 3133 3137 3136 3136 3137 3138 3139 3140
2968 2976 2985 2995 3004 3013 3023 3024 3031 3042 3044 3049 3053 3060 3069 3076 3082 3088 3094 3099 3101 3104 3111 3115 3106 3119 3126 3126 3128 3130 3132 3133 3133 3134 3129 3126 3120 3123 3128 3128 3130 3130 3130 3132 3133
2954 2962 2971 2982 2992 2997 3004 3016 3029 3036 3042 3042 3046 3051 3067 3071 3076 3080 3087 3089 3094 3098 3102 3103 3106 3113 3117 3120 3122 3123 3125 3129 3131 3130 3125 3119 3108 3113 3116 3119 3123 3124 3125 3126 3125
2939 2949 2959 2968 2979 2985 2993 3010 3022 3030 3037 3035 3034 3035 3052 3061 3062 3077 3080 3087 3088 3090 3097 3099 3102 3105 3109 3111 3116 3116 3123 3124 3125 3127 3121 3118 3105 3105 3108 3111 3115 3119 3119 3119 3118
2927 2937 2947 2955 2964 2973 2995 3005 3015 3019 3016 3016 3020 3029 3040 3048 3056 3064 3073 3077 3079 3084 3089 3086 3091 3096 3098 3101 3110 3113 3118 3120 3121 3122 3117 3115 3115 3096 3101 3103 3108 3112 3112 3110 3110
2916 2927 2937 2946 2954 2973 2984 3000 3005 2996 2979 2995 3001 3008 3025 3034 3044 3057 3063 3070 3076 3080 3081 3084 3087 3088 3092 3099 3103 3109 3113 3117 3117 3117 3111 3107 3112 3079 3093 3097 3099 3102 3105 3104 3103
2906 2917 2926 2937 2941 2962 2971 2979 2976 2957 2967 2975 2986 2995 3008 3018 3032 3043 3049 3053 3059 3068 3068 3075 3077 3082 3087 3091 3095 3100 3107 3113 3114 3114 3097 3099 3098 3076 3088 3089 3093 3094 3097 3098 3098
2897 2908 2916 2926 2940 2951 2957 2959 2939 2941 2957 2961 2978 2991 2997 3008 3015 3025 3040 3044 3049 3054 3062 3065 3071 3069 3074 3081 3086 3091 3095 3096 3099 3100 3091 3092 3079 3073 3078 3082 3086 3088 3090 3089 3090
2891 2899 2908 2917 2930 2939 2941 2927 2929 2931 2947 2956 2975 2980 2990 2994 3005 3016 3022 3025 3033 3041 3052 3057 3060 3062 3066 3075 3083 3087 3086 3091 3094 3093 3095 3080 3071 3069 3073 3077 3078 3081 3081 3082 3084
2883 2893 2900 2912 2921 2928 2921 2920 2929 2931 2943 2948 2949 2961 2967 2979 2992 3001 3012 3013 3022 3031 3044 3050 3054 3055 3062 3070 3074 3076 3081 3087 3088 3087 3085 3067 3066 3062 3065 3068 3072 3073 3074 3076 3078
2881 2887 2894 2903 2914 2913 2907 2917 2922 2926 2938 2945 2946 2952 2959 2967 2980 2988 2993 3008 3013 3021 3035 3043 3048 3052 3053 3051 3054 3066 3069 3072 3073 3073 3068 3067 3056 3057 3059 3061 3065 3067 3069 3070 3072
2875 2882 2886 2897 2902 2899 2900 2903 2913 2925 2932 2941 2946 2949 2952 2963 2972 2981 2985 2994 3003 3012 3019 3027 3041 3044 3042 3046 3049 3054 3053 3054 3058 3063 3064 3063 3046 3050 3053 3057 3060 3062 3063 3064 3066
2868 2877 2883 2890 2891 2897 2904 2905 2910 2920 2926 2933 2939 2946 2951 2955 2967 2973 2979 2988 2998 3002 3006 3017 3027 3037 3042 3044 3041 3039 3044 3048 3052 3057 3053 3054 3038 3046 3045 3047 3053 3056 3057 3057 3059
2864 2871 2878 2880 2886 2892 2897 2897 2905 2914 2922 2925 2934 2941 2947 2952 2957 2965 2973 2980 2990 2996 3003 3008 3012 3014 3011 3016 3022 3028 3032 3038 3043 3048 3032 3040 3028 3038 3039 3041 3045 3050 3051 3052 3053
2855 2859 2865 2871 2878 2881 2887 2893 2895 2904 2909 2919 2925 2933 2939 2946 2952 2957 2966 2973 2982 2989 2997 3001 3001 3006 3009 3014 3016 3018 3023 3028 3030 3025 3032 3021 3031 3023 3031 3035 3038 3041 3042 3043 3046
2846 2853 2861 2867 2870 2873 2874 2879 2886 2895 2898 2906 2919 2927 2932 2939 2941 2944 2953 2960 2967 2980 2986 2992 2996 3000 3003 3009 3012 3014 3019 3019 3015 3020 3023 3019 3009 3023 3023 3027 3030 3033 3034 3036 3038
2837 2849 2857 2858 2860 2862 2862 2867 2875 2887 2898 2908 2915 2920 2927 2935 2944 2950 2953 2959 2964 2971 2977 2984 2988 2994 2995 3001 3005 3006 3001 3007 3009 3010 3010 3008 2998 3015 3015 3017 3020 3022 3024 3026 3027